Regional Weather Roundup
Issued by NWS

Home | Current Version | Previous Version | Graphics & Text | Print | Product List | Glossary On
Versions: 1 2 3 4 5 6 7 8 9 10 11 12 13 14 15 16 17 18 19 20 21 22 23 24 25 26 27 28 29 30 31 32 33 34 35 36 37 38 39 40 41 42 43 44 45 46 47 48 49 50
000
ASUS43 KLMK 092202
RWRKY
KENTUCKY REGIONAL WEATHER ROUNDUP
NATIONAL WEATHER SERVICE LOUISVILLE KY
500 PM EST FRI DEC 09 2016

NOTE "FAIR" INDICATES FEW OR NO CLOUDS BELOW 12,000 FEET
WITH NO SIGNIFICANT WEATHER AND/OR OBSTRUCTIONS TO VISIBILITY.

KYZ001>023-026-027-061>063-070>075-092300-
WESTERN AND SOUTH CENTRAL KENTUCKY

CITY           SKY/WX    TMP DP  RH WIND       PRES   REMARKS
PADUCAH        CLEAR     32  12  43 NW7       30.58S WCI  26
HENDERSON      CLOUDY    30  14  51 W7        30.60R WCI  23
OWENSBORO      MOCLDY    29  17  61 W8        30.60R WCI  21
HOPKINSVILLE   CLEAR     31  16  53 N6        30.56S WCI  25
BOWLING GREEN  CLEAR     33  14  45 MISG      30.56S
GLASGOW        NOT AVBL
$$

KYZ024-025-028>034-038-045-046-053-092300-
NORTH CENTRAL KENTUCKY

CITY           SKY/WX    TMP DP  RH WIND       PRES   REMARKS
LOUISVILLE/SDF CLOUDY    27  11  51 W6        30.57S WCI  20
LOUISVILLE/LOU CLOUDY    27  13  55 W3        30.58R
FORT KNOX      CLOUDY    25  14  63 W7        30.54S WCI  17
$$

KYZ035>037-039>044-047>052-055>060-089>105-092300-
NORTHEAST KENTUCKY

CITY           SKY/WX    TMP DP  RH WIND       PRES   REMARKS
LEXINGTON      CLOUDY    24  12  60 SW6       30.54R WCI  17
COVINGTON      CLOUDY    24  13  62 W7        30.52S WCI  16
FRANKFORT      CLOUDY    25  12  58 VRB5      30.55R WCI  19
$$

KYZ054-064>069-076>088-106>120-092300-
SOUTHEAST KENTUCKY

CITY           SKY/WX    TMP DP  RH WIND       PRES   REMARKS
JACKSON        CLOUDY    25  12  58 VRB5      30.49R WCI  19
LONDON         CLEAR     28  12  51 N3        30.50S
SOMERSET       CLEAR     28  14  54 CALM      30.54F
MIDDLESBORO    CLEAR     29  15  54 N7        30.50S WCI  22
MONTICELLO     CLEAR     29  17  61 NW5       30.54F WCI  24
$$





USA.gov is the U.S. government's official web portal to all federal, state and local government web resources and services.